Location: Habighorst
(52.7089°N, 10.2278°E)
Time: 22:52:17
(UTC+00:00)

BREEZE-M DEB (TANK) - Pass Details

Date: 13 January 2026
Orbit: 312 x 11318 km, 49.7° (Epoch: 7 February)

Event Time Altitude Azimuth Distance (km) Brightness Sun altitude
Exits shadow 06:11:22 13° 254° (WSW) 1,065 4.3 -10.6°
Maximum altitude 06:13:01 28° 196° (SSW) 635 3.7 -10.4°
Drops below altitude 10° 06:15:17 10° 132° (SE) 1,374 6.7 -10.1°
Sets 06:17:52 0° 120° (ESE) 2,646 9.0 -9.7°
